loading
DOY 175 | 2024-06-23T11:25:29Z
Showing default

UMBRA-05, 55036

Orbit data source: Space-Track

UMBRA-05, 55036 is a payload satellite owned by Umbra Labs (US) in SSO that was launched on Tue, 03 Jan 2023 UTC via a Falcon 9 launch vehicle from the Air Force Eastern Test Range (AFETR). Payloads include a variety of satellites, spacecraft, and rockets equipped with specific instruments for various scientific and technological missions. These include communications satellites like Starlink; space stations such as the ISS; scientific satellites like the Hubble; Earth observation satellites from companies like Planet Labs, Umbra, and HawkEye 360; GPS; miniature CubeSats for education and research; and military/defense satellites.

Loading next visibility...
Loading greatness...
UMBRA-05 details
NORAD ID55036
COSPAR ID
2023-001AD
Orbit
SSO
Last TLE update8 hours ago
Origin
Flag of USUmbra Labs (US)
ManufacturerUmbra Labs
BusUmbra
MotorUnknown
Mass65 kg wet, 60 kg dry
Launch date (UTC)
2023-01-03 (1 year ago)
Launch vehicle
Falcon 9
Launch site
Air Force Eastern Test Range (AFETR)
Object type
Payload
Rocket body
Debris
Radar Cross SectionLarge (>1 m²)
Predictive object data (real-time)
Latitude37.02576°
Longitude-95.83186°
Altitude523.25 km
Speed7.609 km/s
Apparent Right ascension12h 57m 38s
Apparent Declination0° 25' 22"
Sunlit
Object is in daylight
Predictive observer data (real-time)
Local Sidereal Time22:33:31
Azimuth311.726° NW
Elevation-37.989°
Doppler factor1
Orbital elements
Apogee527.665 km
Perigee515.102 km
Semi-major axis6,899.52 km
Eccentricity0.0009104
Inclination97.4273°
RAAN231.1877°
Arg. of periapsis39.9965°
True anomaly320.12675°
Mean anomaly320.1936°
Mean motion3.78717 °/min
BSTAR0.0010591
Period95.06 mins
Definitive object data (Epoch: 2024-06-23T03:19:46.749Z)
Latitude-0.00001°
Longitude-90.5491°
Altitude522.664 km
Speed7.605 km/s
True Right ascension15h 24m 45s
True Declination0° 00' 00"
Sunlit
Object was in full shadow at TLE epoch
TLE from 8 hours ago
0 UMBRA-05
1 55036U 23001AD  24175.13873553  .00019147  00000-0  10591-2 0  9999
2 55036  97.4273 231.1877 0009104  39.9965 320.1936 15.13870949 81298
Epoch: 2024-06-23T03:19Z
No data available

UMBRA-05 Visibility forecast

Observer location: 39.9160978°, -105.1181434, 0m alt.

UMBRA-05 is not visible in the next 10 days
Span
Click to sort rows by Start time (UTC) header in descending order
Start Az.
Max El. time (UTC)
Max El. Az.
Max El.
End time (UTC)
End Az.